Atlantic
Sunday 1:55 PM
Temperature70° (70°/59°)
Dew Point55°
Relative Humidity60
%
Visibility10
mi
Pressure1023.7
mb
Wind DirectionS
170°
Wind Speed14
mph
(G23)
Precipitation Today0.01

Last 30 Observations

Time PresWx Temp DP Feels RH% Vsby Pressure Ceiling Direction Speed 1h Precip
1:35 PM 68° 54° 60
%
10
mi
1024.1
mb
S
170°
17
mph
(G25)
0.00"
1:15 PM 70° 55° 60
%
10
mi
1024.1
mb
SSE
150°
15
mph
0.00"
12:55 PM 68° 55° 64
%
10
mi
1024.4
mb
SSE
150°
13
mph
(G22)
0.00"
12:35 PM 66° 55° 68
%
10
mi
1024.4
mb
SSE
160°
11
mph
0.00"
12:15 PM 64° 54° 68
%
10
mi
1024.7
mb
7,500
ft
SSE
160°
13
mph
0.00"
11:55 AM 64° 55° 73
%
10
mi
1025.1
mb
7,500
ft
S
170°
10
mph
0.00"
11:35 AM 64° 57° 77
%
10
mi
1025.1
mb
7,500
ft
S
170°
9
mph
0.00"
11:15 AM 63° 59° 88
%
10
mi
1025.1
mb
7,500
ft
SSE
160°
8
mph
0.00"
10:55 AM 63° 59° 88
%
10
mi
1025.1
mb
4,600
ft
SSE
150°
6
mph
Trace
10:35 AM 63° 61° 94
%
10
mi
1025.1
mb
4,600
ft
SSE
150°
5
mph
0.00"
10:15 AM -RA 63° 61° 94
%
8
mi
1025.1
mb
6,000
ft
SSE
150°
7
mph
0.00"
9:55 AM 64° 57° 77
%
9
mi
1025.1
mb
6,500
ft
SE
140°
8
mph
0.00"
9:35 AM 64° 57° 77
%
10
mi
1024.7
mb
7,000
ft
SE
140°
7
mph
0.00"
9:15 AM 63° 57° 83
%
10
mi
1024.7
mb
7,000
ft
SE
130°
8
mph
0.00"
8:55 AM 63° 59° 88
%
10
mi
1025.1
mb
7,000
ft
ESE
110°
8
mph
0.00"
8:35 AM 63° 59° 88
%
10
mi
1024.7
mb
7,000
ft
ESE
110°
7
mph
0.00"
8:15 AM 61° 59° 94
%
10
mi
1024.7
mb
7,000
ft
Calm 0.00"
7:55 AM 61° 57° 88
%
10
mi
1024.7
mb
6,000
ft
Calm 0.00"
7:35 AM 61° 57° 88
%
10
mi
1024.7
mb
6,000
ft
Calm 0.00"
7:15 AM 61° 57° 88
%
10
mi
1024.7
mb
6,000
ft
Calm 0.00"
6:55 AM 61° 59° 94
%
10
mi
1024.4
mb
6,000
ft
Calm 0.00"
6:35 AM 59° 59° 100
%
10
mi
1024.4
mb
6,000
ft
ESE
110°
5
mph
0.00"
6:15 AM 59° 57° 94
%
10
mi
1024.1
mb
6,000
ft
Calm 0.00"
5:55 AM 59° 59° 100
%
10
mi
1024.1
mb
6,000
ft
Calm 0.00"
5:35 AM 59° 59° 100
%
10
mi
1023.7
mb
6,000
ft
NE
40°
3
mph
0.00"
5:15 AM 59° 59° 100
%
10
mi
1023.4
mb
6,000
ft
Calm 0.00"
4:55 AM 59° 59° 100
%
10
mi
1023.4
mb
6,000
ft
Calm 0.00"
4:35 AM 59° 59° 100
%
10
mi
1023.4
mb
6,000
ft
Calm 0.00"
4:15 AM 59° 59° 100
%
10
mi
1023.7
mb
6,500
ft
NE
40°
3
mph
0.00"
3:55 AM 59° 59° 100
%
10
mi
1023.7
mb
6,000
ft
NE
50°
3
mph
0.00"